User: anonymous   Login
Location: Unspecified
(0.0000°N, 0.0000°E)
Time: 02:59:46
(UTC+00:00)
Language:

Kiku-4 - Orbit

View from above orbital plane
View from above orbital plane
View from above satellite
View from above satellite

Ground track
Ground track

The orbit data is extracted from the following two-line orbital elements,

1 13492U 82087A   18171.47921921 -.00000110 +00000-0 +84610-5 0  9994
2 13492 044.6140 162.4907 0010517 028.5515 112.0480 13.70977736792058
Epoch (UTC): 20 June 2018 11:30:04
Eccentricity: 0.0010517
inclination: 44.6140°
perigee height: 988 km
apogee height: 1004 km
right ascension of ascending node: 162.4907°
argument of perigee: 28.5515°
revolutions per day: 13.70977736
mean anomaly at epoch: 112.0480°
orbit number at epoch: 79205

The dashed part of the orbit path shows where the satellite is in the earth's shadow,  

DLR